Location: Hermaringen
(48.5952°N, 10.2585°E)
Time: 05:49:04
(UTC+00:00)

Transit 2A - Pass Details

Date: 17 February 2026
Orbit: 590 x 954 km, 66.7° (Epoch: 14 March)

Event Time Altitude Azimuth Distance (km) Brightness Sun altitude
Rises 17:20:17 0° 315° (NW) 3,637 10.0 -6.8°
Reaches altitude 10° 17:24:05 10° 336° (NNW) 2,671 9.0 -7.4°
Maximum altitude 17:27:44 16° 12° (NNE) 2,243 8.2 -8.0°
Drops below altitude 10° 17:31:18 10° 49° (NE) 2,585 8.2 -8.6°
Enters shadow 17:32:17 - 56° (NE) 2,789 8.3 -8.7°
